COSMOS 1275 DEB, 18902

Orbit data source: Space-Track

COSMOS 1275 DEB, 18902 is space debris in LEO originally from a launch on Thu, 04 Jun 1981 UTC launched from the Plesetsk Missile And Space Complex (PKMTR). Debris objects in space refer to the collection of defunct objects orbiting the Earth. Examples of debris include non-operational satellites, rocket bodies, and fragments generated from explosions, collisions, or faulty payload assembly.

Loading next visibility...
Identifier
18902, 1981-053MB
Orbit
LEO
Country
Flag of CISCIS
Related business
Manufacturer
Unknown
Mission
Spacecraft
Bus & Motor
Unknown
Mass
Unknown
Launch date (UTC)
1981-06-04 (45 years ago)
Launch vehicle
Unknown
Launch site
Plesetsk Missile And Space Complex (PKMTR)
Object type
Payload
Rocket body
Debris
Shape & HBR
Unknown shape, 0.1 m
Radar Cross Section
Small (<0.1 m²)

Expand to show TLE details & history
Last TLE update: 11 hours ago

TLE from 11 hours ago
0 COSMOS 1275 DEB
1 18902U 81053MB  26034.03652227  .00006671  00000-0  15598-2 0  9999
2 18902  82.9421  54.1968 0010973 301.1657  58.8467 14.54516506645789
Epoch: 2026-02-03T00:52Z
TLE epoch observation values (Epoch: 2026-02-03T00:52:35.524Z)
Latitude
0.00002°
Longitude
-92.17443°
Altitude
709.927 km
Speed
7.503 km/s
True Right ascension
03h 36m 47s
True Declination
0° 00' 00"
Sunlit
Object was in daylight at epoch
Visualization orbit readout
Latitude
Unknown
Longitude
Unknown
Altitude
Unknown
Speed
Unknown
Apparent Right ascension
Unknown
Apparent Declination
Unknown
Sunlit
N/A
Visualization observer readout
Local Sidereal Time
13:43:14
Azimuth
Unknown
Elevation
Unknown
Doppler factor
Unknown
Orbital elements
Apogee altitude
715.751 km
Perigee altitude
700.199 km
Semi-major axis
7,086.112 km
Eccentricity
0.0011
Inclination
82.9421°
RAAN
54.1968°
Arg. of periapsis
301.1657°
True anomaly
58.95438°
Mean anomaly
58.8467°
Eccentric anomaly
58.90053°
Mean motion
3.63857 °/min
Orbital period
98.94 mins
BSTAR
0.0015598
Loading maneuver chart data...
Computing Atmospheric mass density...

Documentation

Showing up to 5 results
|